• In Uzbekistan
  • List of Countries
  • For 7 days
  • Water Temperature
  • Satellite Maps
  • Weather Map
  • Weather Widgets
  • user-avatar
    Login

    Hourly Weather Hominichi

    Today, 17 July, Wednesday

    Time Temperature Precipitation Wind Pressure Humidity
    00:00 +14°C° 0.1 mm 2 mps 736 mmHg 94%
    01:00 +13°C° 0.1 mm 2 mps 736 mmHg 94%
    02:00 +13°C° 0 mm 2 mps 736 mmHg 93%
    03:00 +13°C° 0.4 mm 2 mps 736 mmHg 94%
    04:00 +13°C° 0.4 mm 2 mps 736 mmHg 95%
    05:00 +13°C° 0.4 mm 2 mps 735 mmHg 95%
    06:00 +13°C° 0.9 mm 2 mps 735 mmHg 95%
    07:00 +14°C° 0.9 mm 2 mps 735 mmHg 94%
    08:00 +14°C° 0.9 mm 2 mps 735 mmHg 93%
    09:00 +15°C° 0.4 mm 2 mps 735 mmHg 88%
    10:00 +16°C° 0.4 mm 2 mps 735 mmHg 83%
    11:00 +18°C° 0.4 mm 2 mps 735 mmHg 78%
    12:00 +18°C° 1 mm 2 mps 735 mmHg 77%
    13:00 +18°C° 1 mm 2 mps 735 mmHg 76%
    14:00 +19°C° 1 mm 3 mps 734 mmHg 75%
    15:00 +19°C° 1.4 mm 2 mps 734 mmHg 77%
    16:00 +18°C° 1.4 mm 2 mps 734 mmHg 79%
    17:00 +18°C° 1.4 mm 2 mps 734 mmHg 81%
    18:00 +17°C° 0.6 mm 2 mps 734 mmHg 85%
    19:00 +16°C° 0.6 mm 2 mps 734 mmHg 88%
    20:00 +15°C° 0.6 mm 2 mps 734 mmHg 91%
    21:00 +14°C° 0 mm 2 mps 734 mmHg 92%
    22:00 +14°C° 0 mm 2 mps 734 mmHg 92%
    23:00 +13°C° 0 mm 2 mps 734 mmHg 93%

    Tomorrow, 18 July, Thursday

    Time Temperature Precipitation Wind Pressure Humidity
    00:00 +13°C° 0.3 mm 2 mps 734 mmHg 94%
    01:00 +12°C° 0.3 mm 2 mps 734 mmHg 94%
    02:00 +12°C° 0.3 mm 2 mps 734 mmHg 95%
    03:00 +12°C° 0.2 mm 2 mps 734 mmHg 95%
    04:00 +13°C° 0.2 mm 2 mps 734 mmHg 95%
    05:00 +13°C° 0.2 mm 2 mps 734 mmHg 95%
    06:00 +13°C° 0.2 mm 2 mps 734 mmHg 95%
    07:00 +13°C° 0.2 mm 2 mps 734 mmHg 96%
    08:00 +13°C° 0.2 mm 3 mps 734 mmHg 96%
    09:00 +13°C° 0.9 mm 3 mps 734 mmHg 96%
    10:00 +13°C° 0.9 mm 3 mps 734 mmHg 95%
    11:00 +13°C° 0.9 mm 3 mps 734 mmHg 94%
    12:00 +14°C° 0.7 mm 4 mps 734 mmHg 94%
    13:00 +14°C° 0.7 mm 4 mps 734 mmHg 93%
    14:00 +15°C° 0.7 mm 4 mps 735 mmHg 92%
    15:00 +15°C° 1 mm 4 mps 735 mmHg 92%
    16:00 +15°C° 1 mm 4 mps 735 mmHg 92%
    17:00 +15°C° 1 mm 4 mps 735 mmHg 92%
    18:00 +15°C° 0.5 mm 4 mps 735 mmHg 93%
    19:00 +15°C° 0.5 mm 4 mps 735 mmHg 93%
    20:00 +16°C° 0.5 mm 3 mps 735 mmHg 94%
    21:00 +14°C° 0.2 mm 3 mps 735 mmHg 95%
    22:00 +14°C° 0.2 mm 3 mps 736 mmHg 96%
    23:00 +13°C° 0.2 mm 3 mps 736 mmHg 97%

    Day after tomorrow, 19 July, Friday

    Time Temperature Precipitation Wind Pressure Humidity
    00:00 +13°C° 0 mm 4 mps 736 mmHg 97%
    01:00 +13°C° 0 mm 4 mps 736 mmHg 97%
    02:00 +13°C° 0 mm 5 mps 736 mmHg 98%
    03:00 +13°C° 0 mm 5 mps 736 mmHg 97%
    04:00 +13°C° 0 mm 5 mps 736 mmHg 96%
    05:00 +13°C° 0 mm 5 mps 737 mmHg 96%
    06:00 +14°C° 0 mm 6 mps 737 mmHg 93%
    07:00 +15°C° 0 mm 6 mps 737 mmHg 89%
    08:00 +16°C° 0 mm 7 mps 738 mmHg 86%
    09:00 +17°C° 0.1 mm 7 mps 738 mmHg 81%
    10:00 +18°C° 0.1 mm 7 mps 738 mmHg 77%
    11:00 +20°C° 0.1 mm 7 mps 738 mmHg 72%
    12:00 +20°C° 0.3 mm 7 mps 739 mmHg 71%
    13:00 +21°C° 0.3 mm 7 mps 739 mmHg 69%
    14:00 +21°C° 0.3 mm 6 mps 739 mmHg 67%
    15:00 +21°C° 0.3 mm 6 mps 739 mmHg 70%
    16:00 +21°C° 0.3 mm 5 mps 739 mmHg 73%
    17:00 +20°C° 0.3 mm 4 mps 739 mmHg 76%
    18:00 +19°C° 0.1 mm 4 mps 740 mmHg 79%
    19:00 +18°C° 0.1 mm 3 mps 740 mmHg 82%
    20:00 +16°C° 0.1 mm 3 mps 740 mmHg 85%
    21:00 +16°C° 0 mm 3 mps 740 mmHg 87%
    22:00 +14°C° 0 mm 3 mps 741 mmHg 88%
    23:00 +13°C° 0 mm 3 mps 741 mmHg 90%

    20 July, Saturday

    Time Temperature Precipitation Wind Pressure Humidity
    00:00 +13°C° 0 mm 3 mps 741 mmHg 91%
    01:00 +12°C° 0 mm 3 mps 741 mmHg 92%
    02:00 +12°C° 0 mm 3 mps 741 mmHg 94%
    03:00 +12°C° 0 mm 3 mps 741 mmHg 94%
    04:00 +11°C° 0 mm 3 mps 741 mmHg 94%
    05:00 +11°C° 0 mm 3 mps 742 mmHg 94%
    06:00 +13°C° 0 mm 3 mps 742 mmHg 90%
    07:00 +16°C° 0 mm 3 mps 742 mmHg 86%
    08:00 +17°C° 0 mm 4 mps 742 mmHg 81%
    09:00 +19°C° 0 mm 4 mps 743 mmHg 76%
    10:00 +20°C° 0 mm 4 mps 743 mmHg 70%
    11:00 +21°C° 0 mm 5 mps 743 mmHg 65%
    12:00 +21°C° 0 mm 4 mps 743 mmHg 63%
    13:00 +22°C° 0 mm 4 mps 743 mmHg 62%
    14:00 +22°C° 0 mm 4 mps 743 mmHg 61%
    15:00 +22°C° 0.1 mm 4 mps 743 mmHg 64%
    16:00 +22°C° 0.1 mm 4 mps 744 mmHg 68%
    17:00 +22°C° 0.1 mm 3 mps 744 mmHg 72%
    18:00 +21°C° 0.1 mm 3 mps 744 mmHg 76%
    19:00 +19°C° 0.1 mm 2 mps 744 mmHg 80%
    20:00 +17°C° 0.1 mm 2 mps 744 mmHg 84%
    21:00 +17°C° 0 mm 2 mps 744 mmHg 85%
    22:00 +16°C° 0 mm 2 mps 744 mmHg 86%
    23:00 +15°C° 0 mm 2 mps 744 mmHg 87%

    21 July, Sunday

    Time Temperature Precipitation Wind Pressure Humidity
    00:00 +14°C° 0 mm 2 mps 744 mmHg 89%
    01:00 +14°C° 0 mm 2 mps 744 mmHg 90%
    02:00 +13°C° 0 mm 2 mps 745 mmHg 91%
    03:00 +13°C° 0 mm 2 mps 745 mmHg 91%
    04:00 +13°C° 0 mm 2 mps 745 mmHg 91%
    05:00 +13°C° 0 mm 2 mps 745 mmHg 91%
    06:00 +15°C° 0 mm 2 mps 745 mmHg 87%
    07:00 +16°C° 0 mm 2 mps 745 mmHg 83%
    08:00 +18°C° 0 mm 2 mps 745 mmHg 79%
    09:00 +19°C° 0 mm 2 mps 745 mmHg 74%
    10:00 +20°C° 0 mm 2 mps 745 mmHg 70%
    11:00 +23°C° 0 mm 2 mps 746 mmHg 65%
    12:00 +23°C° 0 mm 2 mps 745 mmHg 62%
    13:00 +24°C° 0 mm 2 mps 745 mmHg 59%
    14:00 +24°C° 0 mm 2 mps 745 mmHg 56%
    15:00 +24°C° 0 mm 2 mps 745 mmHg 58%
    16:00 +24°C° 0 mm 2 mps 745 mmHg 60%
    17:00 +24°C° 0 mm 1 mps 745 mmHg 62%
    18:00 +22°C° 0 mm 1 mps 745 mmHg 67%
    19:00 +21°C° 0 mm 1 mps 745 mmHg 72%
    20:00 +19°C° 0 mm 1 mps 745 mmHg 77%
    21:00 +18°C° 0 mm 1 mps 745 mmHg 80%
    22:00 +16°C° 0 mm 1 mps 745 mmHg 82%
    23:00 +15°C° 0 mm 1 mps 745 mmHg 85%

    22 July, Monday

    Time Temperature Precipitation Wind Pressure Humidity
    00:00 +15°C° 0 mm 1 mps 745 mmHg 86%
    01:00 +14°C° 0 mm 1 mps 745 mmHg 87%
    02:00 +14°C° 0 mm 1 mps 745 mmHg 88%
    03:00 +14°C° 0 mm 1 mps 745 mmHg 89%
    04:00 +14°C° 0 mm 1 mps 745 mmHg 89%
    05:00 +14°C° 0 mm 1 mps 745 mmHg 90%
    06:00 +16°C° 0 mm 1 mps 745 mmHg 87%
    07:00 +19°C° 0 mm 1 mps 745 mmHg 83%
    08:00 +20°C° 0 mm 1 mps 745 mmHg 80%
    09:00 +20°C° 0 mm 2 mps 745 mmHg 75%
    10:00 +23°C° 0 mm 2 mps 745 mmHg 71%
    11:00 +24°C° 0 mm 2 mps 745 mmHg 67%
    12:00 +24°C° 0.1 mm 2 mps 745 mmHg 66%
    13:00 +25°C° 0.1 mm 2 mps 745 mmHg 64%
    14:00 +25°C° 0.1 mm 2 mps 745 mmHg 63%
    15:00 +25°C° 0.2 mm 2 mps 745 mmHg 66%
    16:00 +24°C° 0.2 mm 2 mps 745 mmHg 69%
    17:00 +24°C° 0.2 mm 3 mps 745 mmHg 72%
    18:00 +21°C° 0.1 mm 2 mps 745 mmHg 76%
    19:00 +20°C° 0.1 mm 2 mps 745 mmHg 80%
    20:00 +19°C° 0.1 mm 2 mps 745 mmHg 84%
    21:00 +18°C° 0 mm 2 mps 745 mmHg 86%
    22:00 +17°C° 0 mm 2 mps 745 mmHg 89%
    23:00 +16°C° 0 mm 3 mps 745 mmHg 91%
    Show more